This is the latest recevied weather packets stored in our database for station/object ED5YAL-15. If no packets are shown the sender has not sent any weather packets the latest 10 day(s).
| Time | Temp. | Humidity | Pressure | Rain* | Wind** | Luminosity | Snow |
|---|---|---|---|---|---|---|---|
| 1777896102 | 18.89° C | 60% | 1016.6 hPa | - | - | - | - |
| 1777895202 | 19.44° C | 59% | 1016.8 hPa | - | - | - | - |
| 1777894301 | 18.89° C | 61% | 1016.7 hPa | - | - | - | - |
| 1777893400 | 17.78° C | 60% | 1017 hPa | - | - | - | - |
| 1777892499 | 17.22° C | 61% | 1017.1 hPa | - | - | - | - |
| 1777891598 | 16.67° C | 61% | 1017.4 hPa | - | - | - | - |
| 1777890698 | 15.56° C | 62% | 1017.2 hPa | - | - | - | - |
| 1777889797 | 16.67° C | 61% | 1017.1 hPa | - | - | - | - |
| 1777888896 | 16.67° C | 61% | 1017.2 hPa | - | - | - | - |
| 1777887995 | 17.22° C | 61% | 1017.2 hPa | - | - | - | - |
| 1777887094 | 18.89° C | 60% | 1017.4 hPa | - | - | - | - |
| 1777886193 | 20.56° C | 61% | 1017.1 hPa | - | - | - | - |
| 1777885293 | 17.78° C | 62% | 1017 hPa | - | - | - | - |
| 1777884392 | 17.78° C | 61% | 1016.9 hPa | - | - | - | - |
| 1777883491 | 17.78° C | 62% | 1016.9 hPa | - | - | - | - |
| 1777882590 | 20.56° C | 61% | 1016.8 hPa | - | - | - | - |
| 1777881709 | 17.78° C | 61% | 1016.8 hPa | - | - | - | - |
| 1777880808 | 16.67° C | 62% | 1017.1 hPa | - | - | - | - |
| 1777879907 | 17.22° C | 62% | 1017 hPa | - | - | - | - |
| 1777879072 | 17.22° C | 62% | 1016.8 hPa | - | - | - | - |
| 1777879006 | 17.22° C | 62% | 1016.8 hPa | - | - | - | - |
| 1777878105 | 17.22° C | 62% | 1016.9 hPa | - | - | - | - |
| 1777877204 | 16.11° C | 62% | 1016.8 hPa | - | - | - | - |
| 1777876303 | 15.56° C | 62% | 1016.8 hPa | - | - | - | - |
| 1777875403 | 15.56° C | 62% | 1016.7 hPa | - | - | - | - |
* Rain since midnight (hover to see other rain measurements)
** Current wind speed in m/s (hover to see current wind gust speed)